Regional Weather Roundup
Issued by NWS

Home | Current Version | Previous Version | Graphics & Text | Print | Product List | Glossary On
Versions: 1 2 3 4 5 6 7 8 9 10 11 12 13 14 15 16 17 18 19 20 21 22 23 24 25 26 27 28 29 30 31 32 33 34 35 36 37 38 39 40 41 42 43 44 45 46 47 48 49 50
000
ASUS43 KMKX 210611
RWRWI

WISCONSIN REGIONAL WEATHER ROUNDUP
NATIONAL WEATHER SERVICE MILWAUKEE/SULLIVAN WI
100 AM CDT MON APR 21 2014

NOTE: "FAIR" INDICATES FEW OR NO CLOUDS BELOW 12,000 FEET WITH NO
SIGNIFICANT WEATHER AND/OR OBSTRUCTIONS TO VISIBILITY.

WIZ001-002-006>008-014>016-023>028-210700-
NORTHWEST WISCONSIN

CITY           SKY/WX    TMP DP  RH WIND       PRES   REMARKS
SUPERIOR ARPT  FAIR      32  31  95 CALM      29.96F
6HR MIN TEMP:  32; 6HR MAX TEMP:  55;

ASHLAND        FAIR      35  34  96 SW5       29.98F WCI  31
6HR MIN TEMP:  34; 6HR MAX TEMP:  50;

HAYWARD        FAIR      37  32  82 CALM      29.97F
6HR MIN TEMP:  37; 6HR MAX TEMP:  67;

SIREN          FAIR      41  32  70 SE3       29.95F
6HR MIN TEMP:  41; 6HR MAX TEMP:  68;

RICE LAKE      FAIR      48  46  93 CALM      29.98S FOG
6HR MIN TEMP:  48; 6HR MAX TEMP:  68;

LADYSMITH      FAIR      49  47  92 CALM      29.99S FOG
6HR MIN TEMP:  49; 6HR MAX TEMP:  66;

EAU CLAIRE     FAIR      54  52  93 N5        29.95R
6HR MIN TEMP:  54; 6HR MAX TEMP:  64;

MENOMONIE      LGT RAIN  54  53  95 NE3       29.94F
6HR MIN TEMP:  53; 6HR MAX TEMP:  67;

NEW RICHMOND   FAIR      53  52  98 CALM      29.94F
6HR MIN TEMP:  52; 6HR MAX TEMP:  69;

OSCEOLA        MOCLDY    49  41  75 CALM      29.96F
6HR MIN TEMP:  47; 6HR MAX TEMP:  71;

$$

WIZ003>005-009-010-017-018-210700-
NORTH CENTRAL WISCONSIN

CITY           SKY/WX    TMP DP  RH WIND       PRES   REMARKS
WOODRUFF       FAIR      37  32  82 CALM      29.98F
6HR MIN TEMP:  37; 6HR MAX TEMP:  62;

RHINELANDER    FOG       41  41 100 NE5       29.97F VSB 1/4
6HR MIN TEMP:  38; 6HR MAX TEMP:  57;

EAGLE RIVER    FAIR      35  35 100 CALM      29.98F
6HR MIN TEMP:  35; 6HR MAX TEMP:  61;

LAND O LAKES   FAIR      31  29  93 CALM      29.99F
6HR MIN TEMP:  31; 6HR MAX TEMP:  60;

PHILLIPS       FAIR      40  39  97 CALM      29.97F
6HR MIN TEMP:  40; 6HR MAX TEMP:  62;

TOMAHAWK       FOG       39  38  96 CALM      29.97F VSB 1/4
6HR MIN TEMP:  39; 6HR MAX TEMP:  56;

MEDFORD        CLOUDY    50  50  99 E5        29.96F FOG
6HR MIN TEMP:  49; 6HR MAX TEMP:  56;

MERRILL        CLOUDY    49  49 100 CALM      29.97F FOG
6HR MIN TEMP:  44; 6HR MAX TEMP:  57;

$$

WIZ029-030-035-036-043>047-210700-
CENTRAL WISCONSIN

CITY           SKY/WX    TMP DP  RH WIND       PRES   REMARKS
WAUSAU         CLOUDY    51  50  96 CALM      29.96F FOG
6HR MIN TEMP:  51; 6HR MAX TEMP:  57;

MOSINEE        MOCLDY    52  52 100 E3        29.98F
MARSHFIELD     MOCLDY    52  50  93 CALM      29.95F FOG
6HR MIN TEMP:  53; 6HR MAX TEMP:  59; 6HR PCP: TRACE;

STEVENS POINT  FAIR      51  50  98 CALM      29.97F FOG
6HR MIN TEMP:  50; 6HR MAX TEMP:  57; 6HR PCP:  0.03;

WAUPACA        CLOUDY    54  52  94 W7        29.98R FOG
WAUTOMA        FAIR      51  51 100 NW3       29.97F FOG
6HR MIN TEMP:  51; 6HR MAX TEMP:  59;

WISC RAPIDS    LGT RAIN  55  52  89 S13       29.96F
6HR MIN TEMP:  51; 6HR MAX TEMP:  59; 6HR PCP:  0.12;

CAMP DOUGLAS   LGT RAIN  54  54 100 E2        29.96S
                                      6HR PCP: TRACE;

$$

WIZ011>013-019>022-031-037>040-048>050-210700-
NORTHEAST WISCONSIN

CITY           SKY/WX    TMP DP  RH WIND       PRES   REMARKS
ANTIGO         CLOUDY    48  47  98 E3        29.98F FOG
6HR MIN TEMP:  46; 6HR MAX TEMP:  54;

STURGEON BAY   CLOUDY    48  43  81 NE3       29.99F
6HR MIN TEMP:  46; 6HR MAX TEMP:  52;

GREEN BAY      FOG       49  49 100 CALM      29.96F VSB 1
6HR MIN TEMP:  49; 6HR MAX TEMP:  58; 6HR PCP:  0.02;

MANITOWOC      FAIR      43  39  86 CALM      29.97F
6HR MIN TEMP:  43; 6HR MAX TEMP:  45; 6HR PCP: TRACE;

APPLETON       LGT RAIN  50  48  93 N7        29.96F
CLINTONVILLE   LGT RAIN  52  52 100 CALM      29.97F
OSHKOSH        MOCLDY    49  46  90 CALM      29.95F FOG
6HR MIN TEMP:  48; 6HR MAX TEMP:  56; 6HR PCP: TRACE;

$$

WIZ032>034-041-042-053>061-210700-
SOUTHWEST WISCONSIN

CITY           SKY/WX    TMP DP  RH WIND       PRES   REMARKS
LA CROSSE      MOCLDY    55  54  96 SE5       29.95R FOG
6HR MIN TEMP:  53; 6HR MAX TEMP:  60; 6HR PCP: TRACE;

SPARTA         LGT RAIN  54  53  97 CALM      29.96S
6HR MIN TEMP:  53; 6HR MAX TEMP:  60;

VIROQUA        CLOUDY    58  54  85 S8        29.96F
6HR MIN TEMP:  55; 6HR MAX TEMP:  60; 6HR PCP:  0.24;

BOSCOBEL       CLOUDY    57  55  93 S6        29.98F FOG
6HR MIN TEMP:  57; 6HR MAX TEMP:  62; 6HR PCP:  0.02;

PRAIRIE DU CHI CLOUDY    56  54  94 CALM      29.99F FOG
6HR MIN TEMP:  55; 6HR MAX TEMP:  59; 6HR PCP:  0.01;

PLATTEVILLE    FAIR      62  48  60 W5        30.00S
6HR MIN TEMP:  62; 6HR MAX TEMP:  73;

$$

WIZ056-057-062-063-064-067-068-210700-
SOUTH CENTRAL WISCONSIN

CITY           SKY/WX    TMP DP  RH WIND       PRES   REMARKS
BARABOO/DELLS  FAIR      53  52  94 S9        29.95F FOG
6HR MIN TEMP:  52; 6HR MAX TEMP:  58;

LONE ROCK      LGT RAIN  57  55  93 N6        29.97F
6HR MIN TEMP:  56; 6HR MAX TEMP:  63; 6HR PCP:  0.02;

WATERTOWN      FAIR      54  45  71 CALM      29.96S
6HR MIN TEMP:  54; 6HR MAX TEMP:  67;

MADISON        MOCLDY    55  53  93 CALM      29.96F FOG
6HR MIN TEMP:  54; 6HR MAX TEMP:  68; 6HR PCP:  0.01;

MIDDLETON      MOCLDY    55  52  92 W5        29.97S
6HR MIN TEMP:  55; 6HR MAX TEMP:  68; 6HR PCP:  0.01;

MONROE         CLOUDY    63  46  53 S9        29.98S
6HR MIN TEMP:  63; 6HR MAX TEMP:  74;

JANESVILLE     FAIR      68  39  34 SW13      29.97F
$$

WIZ051-052-058>065-066-070>072-210700-
SOUTHEAST WISCONSIN

CITY           SKY/WX    TMP DP  RH WIND       PRES   REMARKS
MILWAUKEE      MOCLDY    62  40  44 S8        29.98F
6HR MIN TEMP:  61; 6HR MAX TEMP:  67;

WAUKESHA       FAIR      59  41  51 S6        29.98F
MILWAUKEE/TIMM MOCLDY    61  37  41 S6        29.98F
RACINE         FAIR      56  40  55 S8        30.00F
6HR MIN TEMP:  55; 6HR MAX TEMP:  61;

BURLINGTON     FAIR      51  43  74 SW3       29.98F
6HR MIN TEMP:  51; 6HR MAX TEMP:  71;

KENOSHA        FAIR      60  41  49 S8        29.99F
6HR MIN TEMP:  55; 6HR MAX TEMP:  66;

FOND DU LAC    FAIR      50  46  86 CALM      29.95F
6HR MIN TEMP:  48; 6HR MAX TEMP:  58;

SHEBOYGAN      MOCLDY    45  40  82 S3        29.97F
6HR MIN TEMP:  44; 6HR MAX TEMP:  55;

WEST BEND      FAIR      50  43  76 CALM      29.97F
JUNEAU         FAIR      55  46  69 SE6       29.97S
6HR MIN TEMP:  55; 6HR MAX TEMP:  62;

$$

LSZ147-162-210700-
LAKE SUPERIOR

STATION/POSITION TIME  TEMP    WIND        PRES    WAVE
                       AIR SEA DIR/SP/G            HT/PER
                 (UTC) (F)     (DEG/KT/KT) (MB)    (FT/S)
DEVILS ISLAND    0600   54     170/ 11/ 13 1014.5F
PORT WING        0500   49     130/  4/  7 1014.6S
SAXON HARBOR     0540             CALM     1014.6F
$$

LMZ867-665-643>646-210700-
LAKE MICHIGAN

STATION/POSITION TIME  TEMP    WIND        PRES    WAVE
                       AIR SEA DIR/SP/G            HT/PER
                 (UTC) (F)     (DEG/KT/KT) (MB)    (FT/S)
NORTHPORT PIER   0500   42      CALM  /  3 1016.3S
SISTER BAY       0509             CALM       N/A
KEWAUNEE LAKESHO 0500   42     210/  1/  2 1016.3F
SHEBOYGAN LAKESH 0600   46     200/  5/  6 1015.2F
PORT WASHINGTON  0500   44        CALM     1015.9
MILWAUKEE LAKESH 0500   57     150/  4/  5   N/A
KENOSHA   LAKESH 0600   47     180/  9/ 11   N/A
$$

TC  - TEMPERATURE IN CELSIUS
VSB - VISIBILITY IN STATUTE MILES
WCI - WIND CHILL INDEX
HX  - HEAT INDEX




USA.gov is the U.S. government's official web portal to all federal, state and local government web resources and services.